Location: DaVinci Observatory
(43.1080°N, 78.6453°W)
Time: 02:51:47
(UTC-04:00)

OTV 5 (USA 277) - Pass Details

Date: 13 October 2017
Orbit: 404 x 417 km, 43.0° (Epoch: 07 September)

Event Time Altitude Azimuth Distance (km) Brightness Sun altitude
Rises 20:23:26 0° 263° (W) 2,352 ? -20.6°
Reaches altitude 10° 20:25:32 10° 263° (W) 1,490 ? -21.0°
Enters shadow 20:28:29 65° 258° (WSW) 460 ? -21.5°
